THORAD DELTA 1 DEB, 10392

Orbit data source: Space-Track

THORAD DELTA 1 DEB, 10392 is space debris in SSO originally from a launch on Fri, 15 Nov 1974 UTC launched from the Air Force Western Test Range (AFWTR). Debris objects in space refer to the collection of defunct objects orbiting the Earth. Examples of debris include non-operational satellites, rocket bodies, and fragments generated from explosions, collisions, or faulty payload assembly.

Loading next visibility...
Identifier
10392, 1974-089EH
Orbit
SSO
Country
Flag of USUS
Related business
Manufacturer
Unknown
Mission
Spacecraft
Bus & Motor
Unknown
Mass
Unknown
Launch date (UTC)
1974-11-15 (51 years ago)
Launch vehicle
Unknown
Launch site
Air Force Western Test Range (AFWTR)
Object type
Payload
Rocket body
Debris
Shape & HBR
Unknown shape, 0.1 m
Radar Cross Section
Small (<0.1 m²)

Expand to show TLE details & history
Last TLE update: 1 day ago

TLE from 1 day ago
0 THORAD DELTA 1 DEB
1 10392U 74089EH  26047.94721245 -.00000019  00000-0  13722-3 0  9995
2 10392 101.2325  93.5681 0050438 148.3548 335.7531 12.60134537359642
Epoch: 2026-02-16T22:43Z
TLE epoch observation values (Epoch: 2026-02-16T22:43:59.155Z)
Latitude
54.62388°
Longitude
161.7968°
Altitude
1,395.378 km
Speed
7.184 km/s
True Right ascension
19h 18m 54s
True Declination
54° 28' 29"
Sunlit
Object was in daylight at epoch
Visualization orbit readout
Latitude
Unknown
Longitude
Unknown
Altitude
Unknown
Speed
Unknown
Apparent Right ascension
Unknown
Apparent Declination
Unknown
Sunlit
N/A
Visualization observer readout
Local Sidereal Time
05:55:55
Azimuth
Unknown
Elevation
Unknown
Doppler factor
Unknown
Orbital elements
Apogee altitude
1,459.225 km
Perigee altitude
1,380.561 km
Semi-major axis
7,798.03 km
Eccentricity
0.00504
Inclination
101.2325°
RAAN
93.5681°
Arg. of periapsis
148.3548°
True anomaly
335.51437°
Mean anomaly
335.7531°
Eccentric anomaly
335.63387°
Mean motion
3.15185 °/min
Orbital period
114.22 mins
BSTAR
0.00013722
Loading maneuver chart data...
Computing Atmospheric mass density...

Documentation

Showing up to 5 results
|